When you browse on this site, cookies collect data to enhance your experience and personalize the content and advertising you see.
Visit our Privacy Policy to learn more. By continuing to use the site, you agree to this use of cookies and data.
  • In United Kingdom
  • List of Countries
  • For 7 days
  • Water Temperature
  • Weather Map
  • Weather Widgets
  • user-avatar
    Login

    Hourly Weather Solden

    Today, 6 December, Friday

    Time Temperature Precipitation Wind Pressure Humidity
    00:00 -7°C° 0 mm 1 mps 581 mmHg 53%
    01:00 -8°C° 0 mm 1 mps 581 mmHg 53%
    02:00 -8°C° 0 mm 1 mps 581 mmHg 53%
    03:00 -8°C° 0 mm 1 mps 580 mmHg 53%
    04:00 -8°C° 0 mm 1 mps 580 mmHg 53%
    05:00 -8°C° 0 mm 1 mps 580 mmHg 53%
    06:00 -8°C° 0 mm 1 mps 580 mmHg 53%
    07:00 -8°C° 0 mm 1 mps 581 mmHg 52%
    08:00 -7°C° 0 mm 1 mps 581 mmHg 54%
    09:00 -4°C° 0 mm 1 mps 582 mmHg 57%
    10:00 -4°C° 0 mm 0 mps 582 mmHg 60%
    11:00 -3°C° 0 mm 0 mps 582 mmHg 63%
    12:00 -2°C° 0 mm 0 mps 582 mmHg 67%
    13:00 -1°C° 0 mm 1 mps 582 mmHg 71%
    14:00 -3°C° 0 mm 0 mps 581 mmHg 72%
    15:00 -5°C° 0 mm 0 mps 580 mmHg 73%
    16:00 -7°C° 0 mm 0 mps 579 mmHg 74%
    17:00 -7°C° 0 mm 1 mps 579 mmHg 71%
    18:00 -8°C° 0 mm 1 mps 579 mmHg 67%
    19:00 -8°C° 0 mm 1 mps 579 mmHg 63%
    20:00 -8°C° 0 mm 1 mps 578 mmHg 63%
    21:00 -8°C° 0 mm 1 mps 578 mmHg 62%
    22:00 -9°C° 0 mm 1 mps 578 mmHg 62%
    23:00 -9°C° 0 mm 1 mps 578 mmHg 62%

    Tomorrow, 7 December, Saturday

    Time Temperature Precipitation Wind Pressure Humidity
    00:00 -9°C° 0 mm 1 mps 578 mmHg 63%
    01:00 -8°C° 0 mm 1 mps 578 mmHg 64%
    02:00 -8°C° 0 mm 1 mps 578 mmHg 65%
    03:00 -7°C° 0 mm 1 mps 578 mmHg 67%
    04:00 -7°C° 0 mm 1 mps 578 mmHg 68%
    05:00 -7°C° 0 mm 1 mps 578 mmHg 67%
    06:00 -7°C° 0 mm 1 mps 578 mmHg 67%
    07:00 -8°C° 0 mm 1 mps 578 mmHg 67%
    08:00 -6°C° 0 mm 1 mps 579 mmHg 68%
    09:00 -4°C° 0 mm 1 mps 579 mmHg 70%
    10:00 -3°C° 0 mm 1 mps 580 mmHg 71%
    11:00 -2°C° 0 mm 1 mps 580 mmHg 73%
    12:00 -1°C° 0 mm 1 mps 581 mmHg 76%
    13:00 -1°C° 0 mm 1 mps 581 mmHg 78%
    14:00 -2°C° 0 mm 1 mps 580 mmHg 79%
    15:00 -3°C° 0 mm 1 mps 580 mmHg 81%
    16:00 -4°C° 0 mm 1 mps 579 mmHg 83%
    17:00 -6°C° 0 mm 1 mps 579 mmHg 80%
    18:00 -8°C° 0 mm 2 mps 579 mmHg 78%
    19:00 -8°C° 0 mm 2 mps 579 mmHg 75%
    20:00 -8°C° 0 mm 2 mps 579 mmHg 74%
    21:00 -9°C° 0 mm 2 mps 579 mmHg 73%
    22:00 -9°C° 0 mm 2 mps 579 mmHg 72%
    23:00 -8°C° 0 mm 1 mps 579 mmHg 69%

    Day after tomorrow, 8 December, Sunday

    Time Temperature Precipitation Wind Pressure Humidity
    00:00 -8°C° 0 mm 1 mps 579 mmHg 66%
    01:00 -8°C° 0 mm 1 mps 579 mmHg 64%
    02:00 -8°C° 0 mm 1 mps 579 mmHg 62%
    03:00 -8°C° 0 mm 1 mps 578 mmHg 60%
    04:00 -8°C° 0 mm 1 mps 578 mmHg 58%
    05:00 -8°C° 0 mm 1 mps 578 mmHg 56%
    06:00 -8°C° 0 mm 1 mps 578 mmHg 55%
    07:00 -8°C° 0 mm 1 mps 578 mmHg 54%
    08:00 -6°C° 0 mm 1 mps 579 mmHg 56%
    09:00 -4°C° 0 mm 1 mps 579 mmHg 58%
    10:00 -4°C° 0 mm 0 mps 580 mmHg 60%
    11:00 -3°C° 0 mm 0 mps 580 mmHg 63%
    12:00 -2°C° 0 mm 1 mps 580 mmHg 66%
    13:00 -1°C° 0 mm 1 mps 580 mmHg 70%
    14:00 -2°C° 0 mm 1 mps 579 mmHg 71%
    15:00 -4°C° 0 mm 1 mps 578 mmHg 73%
    16:00 -6°C° 0 mm 0 mps 577 mmHg 75%
    17:00 -6°C° 0 mm 1 mps 577 mmHg 73%
    18:00 -7°C° 0 mm 1 mps 576 mmHg 72%
    19:00 -7°C° 0 mm 1 mps 576 mmHg 70%
    20:00 -7°C° 0 mm 1 mps 576 mmHg 71%
    21:00 -7°C° 0 mm 0 mps 576 mmHg 71%
    22:00 -7°C° 0 mm 0 mps 576 mmHg 71%
    23:00 -6°C° 0 mm 0 mps 575 mmHg 73%

    9 December, Monday

    Time Temperature Precipitation Wind Pressure Humidity
    00:00 -6°C° 0 mm 0 mps 575 mmHg 74%
    01:00 -6°C° 0 mm 1 mps 574 mmHg 75%
    02:00 -7°C° 0 mm 0 mps 574 mmHg 77%
    03:00 -7°C° 0 mm 0 mps 573 mmHg 79%
    04:00 -8°C° 0 mm 0 mps 572 mmHg 80%
    05:00 -8°C° 0 mm 1 mps 572 mmHg 81%
    06:00 -9°C° 0 mm 1 mps 572 mmHg 81%
    07:00 -9°C° 0 mm 1 mps 571 mmHg 82%
    08:00 -8°C° 0.1 mm 1 mps 572 mmHg 83%
    09:00 -7°C° 0.1 mm 1 mps 572 mmHg 83%
    10:00 -6°C° 0.1 mm 0 mps 572 mmHg 84%
    11:00 -6°C° 0 mm 1 mps 572 mmHg 81%
    12:00 -4°C° 0 mm 1 mps 572 mmHg 78%
    13:00 -3°C° 0 mm 1 mps 572 mmHg 75%
    14:00 -4°C° 0 mm 1 mps 571 mmHg 78%
    15:00 -7°C° 0 mm 1 mps 570 mmHg 82%
    16:00 -8°C° 0 mm 1 mps 569 mmHg 85%
    17:00 -8°C° 0 mm 1 mps 569 mmHg 83%
    18:00 -9°C° 0 mm 1 mps 569 mmHg 81%
    19:00 -12°C° 0 mm 2 mps 569 mmHg 79%
    20:00 -10°C° 0.1 mm 2 mps 569 mmHg 81%
    21:00 -10°C° 0.1 mm 2 mps 570 mmHg 82%
    22:00 -10°C° 0.1 mm 2 mps 571 mmHg 83%
    23:00 -10°C° 0.1 mm 2 mps 571 mmHg 84%

    10 December, Tuesday

    Time Temperature Precipitation Wind Pressure Humidity
    00:00 -10°C° 0.1 mm 2 mps 571 mmHg 84%
    01:00 -10°C° 0.1 mm 2 mps 571 mmHg 84%
    02:00 -10°C° 0.2 mm 2 mps 572 mmHg 85%
    03:00 -10°C° 0.2 mm 2 mps 572 mmHg 85%
    04:00 -10°C° 0.2 mm 2 mps 572 mmHg 86%
    05:00 -10°C° 0.2 mm 2 mps 573 mmHg 86%
    06:00 -13°C° 0.2 mm 3 mps 574 mmHg 86%
    07:00 -13°C° 0.2 mm 3 mps 575 mmHg 86%
    08:00 -13°C° 0 mm 3 mps 576 mmHg 81%
    09:00 -13°C° 0 mm 3 mps 576 mmHg 77%
    10:00 -13°C° 0 mm 3 mps 577 mmHg 73%
    11:00 -12°C° 0 mm 3 mps 577 mmHg 71%
    12:00 -12°C° 0 mm 3 mps 578 mmHg 68%
    13:00 -10°C° 0 mm 3 mps 579 mmHg 66%
    14:00 -12°C° 0 mm 3 mps 578 mmHg 69%
    15:00 -13°C° 0 mm 3 mps 578 mmHg 73%
    16:00 -14°C° 0 mm 3 mps 577 mmHg 77%
    17:00 -15°C° 0 mm 3 mps 577 mmHg 70%
    18:00 -15°C° 0 mm 3 mps 577 mmHg 64%
    19:00 -16°C° 0 mm 3 mps 577 mmHg 57%
    20:00 -16°C° 0 mm 3 mps 577 mmHg 53%
    21:00 -14°C° 0 mm 2 mps 578 mmHg 48%
    22:00 -14°C° 0 mm 2 mps 578 mmHg 43%
    23:00 -12°C° 0 mm 1 mps 578 mmHg 42%

    11 December, Wednesday

    Time Temperature Precipitation Wind Pressure Humidity
    00:00 -11°C° 0 mm 1 mps 577 mmHg 40%
    01:00 -11°C° 0 mm 1 mps 577 mmHg 39%
    02:00 -11°C° 0 mm 1 mps 577 mmHg 38%
    03:00 -11°C° 0 mm 1 mps 577 mmHg 38%
    04:00 -10°C° 0 mm 1 mps 576 mmHg 38%
    05:00 -10°C° 0 mm 1 mps 576 mmHg 39%
    06:00 -10°C° 0 mm 0 mps 576 mmHg 41%
    07:00 -9°C° 0 mm 0 mps 576 mmHg 42%
    08:00 -9°C° 0 mm 0 mps 576 mmHg 45%
    09:00 -8°C° 0 mm 0 mps 577 mmHg 48%
    10:00 -7°C° 0 mm 1 mps 577 mmHg 51%
    11:00 -7°C° 0 mm 1 mps 577 mmHg 52%
    12:00 -6°C° 0 mm 1 mps 577 mmHg 52%
    13:00 -6°C° 0 mm 1 mps 576 mmHg 53%
    14:00 -6°C° 0 mm 1 mps 576 mmHg 57%
    15:00 -7°C° 0 mm 0 mps 575 mmHg 61%
    16:00 -8°C° 0 mm 0 mps 575 mmHg 65%
    17:00 -8°C° 0.1 mm 0 mps 575 mmHg 65%
    18:00 -8°C° 0.1 mm 0 mps 574 mmHg 65%
    19:00 -8°C° 0.1 mm 1 mps 574 mmHg 65%
    20:00 -9°C° 0 mm 0 mps 574 mmHg 66%
    21:00 -9°C° 0 mm 0 mps 573 mmHg 68%
    22:00 -10°C° 0 mm 0 mps 573 mmHg 69%
    23:00 -10°C° 0 mm 0 mps 573 mmHg 71%
    Show more